Simultaneous Nadir Overpasses (SNOs) Predictions

Prediction of SNOs between GOES-16 and METOP-C Satellite Orbit:

Table of predicted SNOs for the next 14.0 days since TLE Epoch: 7/18/2020
Index Date Time (GOES-16) GOES-16 Lat,Lon METOP-C Lat,Lon Distance(km) Time Diff (sec)
1 07/19/2020 02:51:16 0.01, -75.20 -0.95, -79.46 486.36 80
2 07/20/2020 02:27:57 0.02, -75.20 0.16, -74.47 82.98 80
3 07/21/2020 14:49:29 -0.02, -75.22 0.85, -79.03 434.91 80
4 07/22/2020 14:26:11 -0.03, -75.23 -0.32, -74.05 134.71 80
5 07/24/2020 02:47:50 0.03, -75.22 -0.71, -78.64 389.12 80
6 07/25/2020 02:24:30 0.04, -75.23 0.40, -73.65 180.88 80
7 07/26/2020 14:46:03 -0.04, -75.26 0.61, -78.21 335.72 80
8 07/27/2020 14:22:43 -0.04, -75.28 -0.51, -73.22 234.68 80
9 07/29/2020 02:44:23 0.04, -75.28 -0.53, -77.81 288.03 80
10 07/30/2020 02:21:03 0.04, -75.30 0.58, -72.81 282.55 80
11 07/31/2020 14:42:35 -0.04, -75.33 0.42, -77.38 233.26 80
